FW1662 Weather Reports


time (UTC)temp
C
wind
direction
speed
KPH
gust
KPH
rain 1hr
cm
rain 24hr
cm
rain mn
cm
humidity
%
barometer
mb
20260506143027 16 181 6.4 22.5 0.00 0.00 0.00 82 1009.6
20260506141515 17 200 12.9 22.5 0.00 0.00 0.00 80 1010.0
20260506140014 17 176 11.3 29.0 0.00 0.00 0.00 80 1010.0
20260506134512 17 224 11.3 25.7 0.00 0.00 0.00 81 1010.3
20260506133011 16 193 11.3 27.4 0.00 0.00 0.00 82 1010.4
20260506131511 16 354 9.7 19.3 0.00 0.00 0.00 82 1010.1
20260506130012 16 241 12.9 22.5 0.00 0.00 0.00 83 1010.1
20260506124508 16 231 8.0 19.3 0.00 0.00 0.00 83 1010.2
20260506123008 16 165 9.7 19.3 0.00 0.00 0.00 82 1010.2
20260506121505 16 210 8.0 20.9 0.00 0.00 0.00 83 1010.4
20260506120005 15 161 9.7 25.7 0.00 0.00 0.00 85 1010.7
20260506114506 15 191 6.4 20.9 0.00 0.00 0.00 86 1010.6
20260506113003 15 183 6.4 20.9 0.00 0.00 0.00 88 1010.4
20260506111502 14 211 8.0 19.3 0.00 0.00 0.00 89 1010.4
20260506110002 14 200 8.0 25.7 0.00 0.00 0.00 90 1010.6
20260506104601 13 212 11.3 25.7 0.00 0.00 0.00 90 1010.4
20260506103119 13 202 6.4 20.9 0.00 0.00 0.00 91 1010.3
20260506101557 13 157 8.0 17.7 0.00 0.00 0.00 91 1010.2
20260506100056 13 203 9.7 20.9 0.00 0.00 0.00 91 1010.2
20260506094604 13 219 6.4 19.3 0.00 0.00 0.00 91 1010.0
20260506093053 13 201 6.4 22.5 0.00 0.00 0.00 91 1010.1
20260506091556 13 174 9.7 20.9 0.00 0.00 0.00 90 1010.0
20260506090054 13 222 11.3 32.2 0.00 0.00 0.00 90 1010.2
20260506084601 13 210 11.3 24.1 0.00 0.00 0.00 90 1010.2
20260506083044 13 216 11.3 24.1 0.00 0.00 0.00 90 1010.3
20260506081544 13 248 8.0 20.9 0.00 0.00 0.00 90 1010.3
20260506073040 13 191 12.9 29.0 0.00 0.00 0.00 89 1010.6
20260506071535 13 229 11.3 24.1 0.00 0.00 0.00 88 1010.6
20260506061543 13 217 11.3 22.5 0.00 0.00 0.00 87 1010.7
20260506044517 15 210 8.0 24.1 0.00 0.00 0.00 83 1011.0
20260506043010 15 226 12.9 25.7 0.00 0.00 0.00 82 1011.0
20260506041505 16 191 12.9 20.9 0.00 0.00 0.00 81 1010.9
20260506040001 16 161 12.9 27.4 0.00 0.00 0.00 80 1011.0
20260506034502 16 181 8.0 27.4 0.00 0.00 0.00 79 1010.9
20260506033004 17 215 11.3 38.6 0.00 0.00 0.00 78 1010.8
20260506031600 17 163 19.3 30.6 0.00 0.00 0.00 78 1010.8
20260506030059 17 248 9.7 27.4 0.00 0.00 0.00 77 1010.9
20260506024600 17 213 12.9 29.0 0.00 0.00 0.00 77 1010.9
20260506023058 16 174 14.5 29.0 0.00 0.00 0.00 76 1010.8
20260506021605 17 186 12.9 37.0 0.00 0.00 0.00 76 1011.0
20260506020056 17 231 11.3 22.5 0.00 0.00 0.00 75 1010.9
20260506014555 17 200 11.3 27.4 0.00 0.00 0.00 74 1010.9
20260506013104 17 216 16.1 32.2 0.00 0.00 0.00 72 1010.6
20260506011605 18 206 9.7 37.0 0.00 0.00 0.00 70 1010.5
20260506010054 18 169 14.5 27.4 0.00 0.00 0.00 68 1010.3
20260506004553 18 196 11.3 29.0 0.00 0.00 0.00 68 1010.1
20260506003054 19 144 17.7 33.8 0.00 0.00 0.00 67 1010.0
20260506001553 19 219 16.1 38.6 0.00 0.00 0.00 67 1009.9
20260506000051 19 220 9.7 32.2 0.00 0.00 0.00 67 1009.7
20260505234600 19 225 9.7 32.2 0.00 0.00 0.00 67 1009.7
20260505233051 19 172 11.3 24.1 0.00 0.00 0.00 67 1009.5
20260505231604 18 189 12.9 35.4 0.00 0.00 0.00 67 1009.2
20260505230052 19 206 14.5 30.6 0.00 0.00 0.00 66 1009.0
20260505224549 20 164 14.5 30.6 0.00 0.00 0.00 63 1008.9
20260505223048 20 198 19.3 35.4 0.00 0.00 0.00 62 1009.0
20260505221553 21 350 14.5 33.8 0.00 0.00 0.00 62 1008.7
20260505220046 21 171 19.3 41.8 0.00 0.00 0.00 62 1008.8
20260505214603 21 245 16.1 30.6 0.00 0.00 0.00 62 1008.5
20260505213044 21 167 20.9 32.2 0.00 0.00 0.00 63 1008.6
20260505211543 20 138 16.1 32.2 0.00 0.00 0.00 64 1008.6
20260505210044 21 210 19.3 43.5 0.00 0.00 0.00 63 1008.4
20260505204541 21 212 19.3 40.2 0.00 0.00 0.00 62 1008.5
20260505203042 22 224 17.7 40.2 0.00 0.00 0.00 61 1008.6
20260505201539 22 152 17.7 38.6 0.00 0.00 0.00 61 1008.8
20260505200044 22 207 12.9 33.8 0.00 0.00 0.00 60 1008.7
20260505194536 22 209 16.1 41.8 0.00 0.00 0.00 61 1008.8
20260505193036 22 245 12.9 32.2 0.00 0.00 0.00 62 1009.1
20260505191532 21 167 9.7 30.6 0.00 0.00 0.00 63 1009.4
20260505190039 21 232 14.5 37.0 0.00 0.00 0.00 62 1009.6
20260505184530 22 171 9.7 24.1 0.00 0.00 0.00 62 1009.7
20260505183034 22 212 6.4 32.2 0.00 0.00 0.00 64 1009.8
20260505181526 22 195 17.7 30.6 0.00 0.00 0.00 63 1009.8
20260505180025 22 148 8.0 22.5 0.00 0.00 0.00 63 1010.1
20260505174523 22 205 11.3 27.4 0.00 0.00 0.00 62 1010.4
20260505173021 22 213 12.9 27.4 0.00 0.00 0.00 61 1010.2
20260505171520 23 163 17.7 27.4 0.00 0.00 0.00 59 1010.3
20260505170021 23 221 11.3 30.6 0.00 0.00 0.00 60 1010.4
20260505164517 23 198 11.3 22.5 0.00 0.00 0.00 59 1010.4
20260505163019 23 229 11.3 27.4 0.00 0.00 0.00 57 1010.7
20260505161518 23 169 12.9 25.7 0.00 0.00 0.00 57 1010.7
20260505153008 22 245 4.8 24.1 0.00 0.00 0.00 59 1011.1
20260505151506 22 196 9.7 24.1 0.00 0.00 0.00 60 1011.3